Orange Lake Weather Center

Moon Phase Calendar



Orange Lake Water Level
Online Cameras

 


      

Current Conditions in Lochloosa
5/26/2022 3:54:29 PM

90°F
Feels Like 88
Clouds
Humidity
28%
Pressure
29.97"
Wind
10 mph (SSE)
Dew Point
53°F
UV Index
5/10 (Moderate)
Visibility
6 mi

Hourly Forecast

Date & Time Thu, May 26
3:00 PM
Thu, May 26
4:00 PM
Thu, May 26
5:00 PM
Thu, May 26
6:00 PM
Thu, May 26
7:00 PM
Thu, May 26
8:00 PM
Thu, May 26
9:00 PM
Thu, May 26
10:00 PM
Thu, May 26
11:00 PM
Fri, May 27
12:00 AM
Fri, May 27
1:00 AM
Fri, May 27
2:00 AM
Fri, May 27
3:00 AM
Fri, May 27
4:00 AM
Fri, May 27
5:00 AM
Fri, May 27
6:00 AM
Fri, May 27
7:00 AM
Fri, May 27
8:00 AM
Fri, May 27
9:00 AM
Fri, May 27
10:00 AM
Fri, May 27
11:00 AM
Fri, May 27
12:00 PM
Fri, May 27
1:00 PM
Fri, May 27
2:00 PM
Fri, May 27
3:00 PM
Fri, May 27
4:00 PM
Fri, May 27
5:00 PM
Fri, May 27
6:00 PM
Fri, May 27
7:00 PM
Fri, May 27
8:00 PM
Fri, May 27
9:00 PM
Fri, May 27
10:00 PM
Fri, May 27
11:00 PM
Sat, May 28
12:00 AM
Sat, May 28
1:00 AM
Sat, May 28
2:00 AM
Sat, May 28
3:00 AM
Sat, May 28
4:00 AM
Sat, May 28
5:00 AM
Sat, May 28
6:00 AM
Sat, May 28
7:00 AM
Sat, May 28
8:00 AM
Sat, May 28
9:00 AM
Sat, May 28
10:00 AM
Sat, May 28
11:00 AM
Sat, May 28
12:00 PM
Sat, May 28
1:00 PM
Sat, May 28
2:00 PM
Condition
Clouds

Clouds

Clouds

Clouds

Rain

Clouds

Clouds

Clouds

Clouds

Rain

Clouds

Clouds

Clouds

Clouds

Clouds

Clouds

Clouds

Clouds

Clouds

Clouds

Clouds

Clouds

Clouds

Clouds

Clouds

Clouds

Clouds

Clouds

Clouds

Clouds

Clear

Clear

Clear

Clear

Clear

Clear

Clear

Clear

Clear

Clear

Clear

Clear

Clear

Clear

Clear

Clear

Clear

Clear
Temperature 91°F90°F91°F88°F85°F82°F78°F76°F76°F75°F75°F75°F74°F73°F72°F72°F72°F76°F81°F84°F87°F89°F91°F92°F90°F89°F89°F88°F85°F81°F78°F77°F75°F74°F72°F71°F70°F70°F69°F68°F69°F74°F79°F83°F87°F90°F93°F95°F
Feels Like 89°F88°F89°F88°F87°F84°F79°F77°F77°F76°F76°F76°F75°F74°F73°F73°F73°F77°F84°F87°F89°F90°F92°F92°F90°F89°F90°F89°F87°F83°F79°F77°F76°F75°F73°F72°F71°F71°F70°F69°F69°F74°F79°F84°F86°F88°F90°F92°F
Cloudiness 82%81%82%85%88%91%100%100%100%100%100%100%99%99%89%75%62%54%63%60%69%74%77%74%82%89%92%82%67%56%0%0%0%0%0%0%0%0%0%0%0%0%0%0%0%0%0%0%
Visibility 6 mi6 mi6 mi6 mi6 mi6 mi6 mi6 mi6 mi6 mi6 mi6 mi6 mi6 mi6 mi6 mi6 mi6 mi6 mi6 mi6 mi6 mi6 mi6 mi6 mi6 mi6 mi6 mi6 mi6 mi6 mi6 mi6 mi6 mi6 mi6 mi6 mi6 mi6 mi6 mi6 mi6 mi6 mi6 mi6 mi6 mi6 mi6 mi
Precipitation 0%3%14%27%31%31%11%8%7%42%46%42%9%13%10%9%9%6%6%20%49%50%50%50%17%3%3%4%4%3%0%10%11%7%6%9%25%22%18%17%17%13%0%0%0%0%0%0%
Humidity 29%28%29%38%50%62%71%75%77%81%82%82%84%85%86%88%87%78%66%56%48%43%39%38%40%41%42%45%50%58%67%73%77%81%85%89%91%91%89%88%86%72%60%48%37%30%26%23%
Dew Point 55°F53°F54°F60°F64°F67°F68°F68°F68°F68°F69°F69°F68°F68°F68°F68°F68°F69°F68°F67°F66°F64°F63°F62°F62°F62°F63°F63°F65°F65°F66°F67°F68°F68°F68°F68°F68°F67°F66°F65°F64°F64°F64°F61°F58°F55°F53°F52°F
Pressure 29.97"29.97"29.97"29.97"30"30"30"30"30.03"30.03"30.03"30"29.97"29.97"29.97"29.97"30"30"30"30"29.97"29.97"29.94"29.94"29.91"29.91"29.88"29.88"29.88"29.91"29.91"29.94"29.94"29.94"29.91"29.91"29.91"29.91"29.91"29.91"29.91"29.94"29.94"29.94"29.94"29.91"29.91"29.88"
Wind Speed 9.4 mph10 mph7.8 mph8 mph6.6 mph4.2 mph1.5 mph3.1 mph4.7 mph3 mph2.7 mph3.3 mph3.7 mph3.8 mph4.4 mph4.2 mph4.4 mph6.3 mph8.6 mph10 mph10.9 mph12.2 mph12.7 mph13.4 mph12.7 mph12.3 mph12.8 mph12.1 mph10.4 mph9.4 mph8.8 mph7.6 mph6 mph4.8 mph4.2 mph4.2 mph4.1 mph3.8 mph3.8 mph3.7 mph3.3 mph3.5 mph4.2 mph4.9 mph5.4 mph5.7 mph6.2 mph6.6 mph
Wind
Direction
155°
SSE
148°
SSE
186°
S
239°
WSW
242°
WSW
247°
WSW
252°
WSW
150°
SSE
139°
SE
199°
SSW
213°
SSW
184°
S
177°
S
174°
S
178°
S
184°
S
182°
S
187°
S
202°
SSW
214°
SW
222°
SW
225°
SW
224°
SW
224°
SW
229°
SW
237°
WSW
239°
WSW
237°
WSW
231°
SW
233°
SW
238°
WSW
242°
WSW
244°
WSW
247°
WSW
250°
WSW
249°
WSW
248°
WSW
261°
W
277°
W
280°
W
267°
W
276°
W
273°
W
262°
W
255°
WSW
255°
WSW
256°
WSW
255°
WSW

Daily Forecast

Date High Low Precip. Humidity
Today
May 26

Rain
92 °F
71 °F
37%
33%
Friday
May 27

Rain
92 °F
72 °F
50%
39%
Saturday
May 28

Clear
95 °F
68 °F
25%
23%
Sunday
May 29

Rain
96 °F
68 °F
93%
29%
Monday
May 30

Rain
93 °F
68 °F
83%
35%
Tuesday
May 31

Rain
89 °F
71 °F
20%
42%
Wednesday
Jun 1

Clear
93 °F
69 °F
1%
32%
Thursday
Jun 2

Rain
96 °F
69 °F
27%
28%
Friday
Jun 3

Clear
97 °F
70 °F
19%
21%
Saturday
Jun 4

Clear
98 °F
71 °F
17%
24%
Sunday
Jun 5

Rain
99 °F
73 °F
53%
28%
Monday
Jun 6

Rain
94 °F
73 °F
52%
38%
Tuesday
Jun 7

Rain
96 °F
74 °F
46%
37%
Wednesday
Jun 8

Rain
101 °F
74 °F
21%
28%
Thursday
Jun 9

Clear
103 °F
75 °F
17%
25%
Friday
Jun 10

Clouds
104 °F
74 °F
0%
25%

Temperature 8-14 Day Outlook



Precipitation 8-14 Day Outlook




Quick Links
Orange Lake News
Orange Lake Photos
Orange Lake Videos




About Us
Contact Us
Site Map
Search Site
Advertise With Us
   
Orange.USLakes.info
THE ORANGE LAKE WEBSITE

Copyright 2022, Lakes Online
Privacy    |    Legal